Location: Markdorf
(47.7192°N, 9.3903°E)
Time: 15:31:04
(UTC+00:00)

Daily predictions for brighter satellites

Satellite Brightness Start Highest point End
(mag) Time Altitude Azimuth Time Altitude Azimuth Time Altitude Azimuth
Cosmos 1092 Rocket 4.2 15:56:30 10° N 16:02:41 50° ENE 16:08:47 10° SSE
SJ-7 4.5 16:00:03 10° SSE 16:04:14 76° ENE 16:08:29 10° N
MOS 1 Rocket 4.1 16:01:19 10° N 16:06:12 56° WNW 16:10:45 10° SSW
COSMOS 2455 3.5 16:01:29 10° S 16:07:00 39° ESE 16:12:34 10° NE
Spot 1 4.4 16:06:57 10° NNE 16:11:42 65° ESE 16:16:40 10° S
Cosmos 2322 Rocket 3.7 16:10:23 10° N 16:13:59 17° NE 16:17:36 10° ENE
Cosmos 1697 Rocket 2.7 16:08:43 10° NNW 16:14:23 88° ENE 16:20:00 10° SSE
CZ-4C R/B 3.1 16:09:01 10° NW 16:15:51 55° NE 16:23:55 10° ESE
Cosmos 468 Rocket 4.0 16:13:09 10° SSW 16:18:18 86° ESE 16:23:34 10° NNE
Cosmos 1980 Rocket 2.3 16:14:01 10° NNW 16:19:36 55° ENE 16:25:07 10° SE
NOAA 12 4.1 16:16:04 10° SSE 16:21:23 83° ENE 16:26:44 10° NNW
ATLAS CENTAUR R/B 3.1 16:13:50 10° SW 16:24:42 78° SE 16:28:48 12° NE
Meteor PRIRODA 3.7 16:21:44 10° S 16:25:21 79° WSW 16:28:59 10° NNW
COSMO-SKYMED 1 4.2 16:22:41 10° NE 16:25:22 16° E 16:28:01 10° SE
Cosmos 1898 Rocket 3.8 16:20:20 10° NNW 16:25:36 74° WSW 16:30:46 10° SSE
Cosmos 1627 Rocket 4.5 16:19:32 10° N 16:25:40 62° ENE 16:31:43 10° SSE
Cosmos 2369 3.7 16:20:40 10° NNW 16:26:26 75° ENE 16:32:09 10° SSE
Cosmos 1933 3.3 16:23:33 10° S 16:27:34 67° E 16:31:35 10° NNE
USA 305 3.7 16:25:25 10° WNW 16:29:21 35° N 16:32:38 14° ENE
Cosmos 1633 Rocket 3.9 16:25:35 10° NNE 16:29:22 28° ENE 16:33:08 10° SE
FengYun 1-2 T 4.2 16:24:22 10° SSE 16:29:57 82° ENE 16:35:31 10° NNW
Cosmos 2034 Rocket 4.2 16:24:03 10° SSW 16:30:12 77° W 16:36:24 10° N
CZ-4B R/B 3.0 16:26:34 10° S 16:30:33 74° WSW 16:34:21 10° NNW
Cosmos 1812 3.7 16:27:59 10° SSE 16:31:15 27° E 16:34:34 10° NNE
NOSS 2-2 (C) 4.3 16:26:12 10° NW 16:31:17 80° NE 16:38:28 10° SE
CORIOLIS 4.2 16:26:20 10° SSE 16:31:40 63° ENE 16:37:02 10° N
Cosmos 1818 4.1 16:27:08 10° NNW 16:32:18 39° NE 16:37:24 10° ESE
SL-16 R/B 3.2 16:28:57 10° N 16:33:37 25° NE 16:38:16 10° E
AQUARIUS 4.1 16:31:45 10° SSE 16:36:11 64° ENE 16:40:38 10° N
Cosmos 1151 Rocket 3.8 16:32:40 10° SSE 16:36:29 31° E 16:40:20 10° NNE
Cosmos 2082 Rocket 2.4 16:31:56 10° S 16:37:26 53° ESE 16:42:55 10° NE
USA 267 3.3 16:32:04 11° NE 16:38:22 75° SE 16:44:53 10° SW
SMAP 3.0 16:36:21 10° SSE 16:41:01 83° ENE 16:45:41 10° NNW
Meteor 2-14 Rocket 4.4 16:36:08 10° N 16:42:17 74° E 16:48:20 10° SSE
Meteor 1-14 Rocket 4.4 16:38:04 10° N 16:43:47 53° ENE 16:49:33 10° SSE
ARGOS 3.7 16:42:51 10° SE 16:47:42 35° ENE 16:52:32 10° N
MOS 1-B 4.4 16:42:08 10° SE 16:47:45 56° ENE 16:53:25 10° N
Cosmos 1763 Rocket 4.2 16:43:12 10° SW 16:48:09 53° WNW 16:53:11 10° NNE
Cosmos 2333 Rocket 4.0 16:45:39 10° N 16:48:12 13° NNE 16:49:03 12° NE
Cosmos 1634 Rocket 4.0 16:42:39 10° S 16:48:57 74° E 16:55:17 10° NNE
Cosmos 2278 3.7 16:43:59 10° NNW 16:49:42 66° ENE 16:55:21 10° SE
Cosmos 2026 Rocket 3.9 16:44:11 10° N 16:50:21 89° E 16:56:25 10° S
Cosmos 1602 4.2 16:46:59 10° NNW 16:50:48 63° W 16:54:38 10° S
CZ-4B DEB 4.1 16:45:30 10° SSE 16:50:59 78° ENE 16:56:30 10° NNW
Cosmos 44 Rocket 3.5 16:49:40 10° NNW 16:54:29 49° NE 16:59:07 10° ESE
Cosmos 1833 Rocket 3.2 16:49:37 10° SW 16:55:10 59° WNW 17:00:46 10° NNE
CZ-2C R/B 4.3 16:51:35 10° S 16:56:10 42° W 17:00:43 10° NNW
Cosmos 841 Rocket 3.4 16:51:14 10° SSW 16:56:24 86° ESE 17:01:35 10° NNE
Cosmos 1666 Rocket 3.5 16:52:46 10° N 16:57:11 61° ENE 17:01:33 10° SSE
Okean O Rocket 2.2 16:53:40 10° SE 16:57:43 35° ENE 17:01:46 10° N
MOS 1-B Rocket 4.3 16:52:25 10° NNE 16:58:17 53° E 17:04:56 10° S
Cosmos 1328 Rocket 4.0 16:56:00 10° SSE 17:00:07 39° E 17:03:23 15° NNE
Cosmos 1470 Rocket 4.2 16:56:26 10° N 17:00:31 34° ENE 17:04:36 10° SE
H-2A R/B 1.9 16:56:08 10° SSE 17:01:13 68° ENE 17:06:13 10° N
USA 306 3.5 16:57:46 10° WNW 17:01:47 39° NNE 17:03:36 26° ENE
Cosmos 1939 Rocket 3.8 16:58:33 10° S 17:02:34 52° W 17:06:33 10° NNW
COSMOS 2406 3.6 16:58:36 10° SW 17:04:18 65° WNW 17:10:01 10° NNE
Cosmos 2219 Rocket 4.0 17:02:21 10° N 17:04:46 13° NNE 17:04:46 13° NNE
ISS -2.6 17:01:53 10° WNW 17:05:09 44° SSW 17:08:21 10° SE
ATLAS 2AS CENTAUR R/B 4.3 17:00:52 10° NW 17:06:43 23° N 17:10:37 16° NE
Cosmos 372 Rocket 4.3 17:01:58 10° NNW 17:07:12 70° WSW 17:12:24 10° S
CZ-2C R/B 2.8 17:02:58 10° NNE 17:07:53 44° E 17:12:48 10° S
Meteor 2-21 Rocket 4.4 17:01:59 10° N 17:08:08 86° E 17:14:12 10° S
Cosmos 1125 Rocket 3.9 17:03:43 10° N 17:08:39 39° ENE 17:13:35 10° SE
Cosmos 1500 3.8 17:07:02 10° NNW 17:10:42 55° W 17:14:20 10° S
USA 234 3.4 17:05:58 10° SE 17:12:31 79° SW 17:19:05 10° NW
SKYMED 2 3.8 17:11:18 22° NE 17:13:48 45° E 17:17:58 10° S
Cosmos 1782 3.6 17:12:46 10° SSW 17:16:40 52° WNW 17:20:35 10° N
Cosmos 1900 4.4 17:11:58 10° SSW 17:16:42 55° ESE 17:18:52 30° ENE
CZ-2D R/B 3.4 17:14:06 10° S 17:17:55 73° WSW 17:21:46 10° NNW
Sich 1 4.2 17:14:10 10° NNW 17:18:16 45° W 17:22:22 10° SSW
Cosmos 1655 Rocket 4.1 17:12:45 10° N 17:19:00 52° ENE 17:25:11 10° SSE
CZ-4B R/B 3.0 17:14:50 10° SSE 17:20:12 75° ENE 17:25:33 10° NNW
USA 307 3.4 17:17:24 10° WNW 17:21:29 43° NNE 17:22:25 37° NE
Cosmos 2180 Rocket 4.5 17:16:21 10° S 17:22:35 66° E 17:28:48 10° NNE
Meteor 2-6 Rocket 4.2 17:17:09 10° S 17:22:48 65° E 17:28:21 10° NNE
APEX 4.4 17:21:03 10° S 17:23:25 24° SE 17:23:25 24° SE
SJ-11-01 4.2 17:19:50 10° SSE 17:24:31 66° ENE 17:29:15 10° N
ATLAS 5 CENTAUR R/B 2.0 17:18:53 10° NW 17:25:51 51° NNE 17:26:27 45° ENE
deb Chang Zheng 4 3.4 17:26:02 10° SSE 17:30:20 84° ENE 17:34:42 10° NNW
ERBS 4.5 17:29:24 10° NW 17:30:53 15° N 17:30:53 15° N
Cosmos 2360 Rocket 2.9 17:32:32 10° NNW 17:37:21 33° NE 17:37:21 33° NE
Lacrosse 5 rocket 1.2 17:34:20 10° NW 17:38:17 87° SW 17:39:13 52° SE
Cosmos 1666 3.7 17:36:12 10° NNW 17:39:46 46° W 17:43:20 10° SSW
USA 308 3.2 17:40:01 10° WNW 17:44:08 51° NNE 17:44:08 51° NNE
Cosmos 1515 Rocket 3.5 17:40:20 10° S 17:44:42 62° E 17:44:48 62° E
Meteor 1-10 Rocket 4.1 17:46:33 10° S 17:52:19 81° E 17:56:15 21° NNE
Meteor 1-11 Rocket 3.6 17:46:59 10° N 17:52:38 76° ENE 17:58:23 10° SSE
COSMOS 2455 3.7 17:47:07 10° WSW 17:52:53 46° NW 17:56:40 21° NNE
Cosmos 921 Rocket 2.9 17:53:34 10° SSW 17:57:45 83° WNW 17:57:55 80° NNW
Cosmos 2322 Rocket 2.1 17:53:27 10° NNW 17:59:10 68° ENE 18:00:15 55° ESE
SL-08 RB Rocket 3.7 17:55:02 10° SSE 17:59:41 84° WSW 18:04:18 10° NNW
COSMO-SKYMED 1 3.1 17:59:55 30° N 18:01:54 59° WNW 18:06:10 10° SSW
Cosmos 2298 Rocket 4.2 17:57:01 10° NNW 18:02:20 71° WSW 18:07:38 10° SSE
Cosmos 1980 Rocket 4.3 17:58:36 10° NW 18:03:15 27° WSW 18:07:52 10° SSW
CZ-4C R/B 3.8 17:57:35 10° NW 18:04:38 50° WSW 18:12:43 10° SSE
Meteor 2-15 Rocket 4.3 18:03:12 10° S 18:09:20 89° WNW 18:14:07 18° N
USA 305 3.6 18:05:26 10° WNW 18:08:38 48° NW 18:08:38 48° NW
Feng Yun 1-1 Rocket 4.4 18:04:57 10° SSE 18:10:53 81° WSW 18:16:46 10° NNW
YAOGAN 1 4.4 18:14:04 21° NNW 18:14:04 21° NNW 18:15:31 10° NNW
CZ-2C R/B 3.8 18:13:10 10° SSW 18:14:25 13° S 18:14:25 13° S
Cosmos 2266 Rocket 4.4 18:11:45 10° NNW 18:18:04 66° W 18:24:25 10° S
SL-16 R/B 2.4 18:12:36 10° NNW 18:18:16 69° WSW 18:21:04 30° S
Aureole 3 Rocket 4.4 18:14:08 10° S 18:26:48 - N 18:16:26 34° S
USA 267 3.7 18:19:25 41° NNE 18:21:12 51° NNW 18:27:29 10° W
Cosmos 2082 Rocket 3.7 18:16:46 10° WSW 18:21:47 31° NW 18:24:53 19° N
ARGOS 4.5 18:22:52 10° SSW 18:27:54 39° W 18:32:57 10° NNW
GEOS 3 Rocket 3.8 18:30:35 65° NW 18:30:35 65° NW 18:34:59 10° NW
Cosmos 2333 Rocket 3.7 18:28:30 10° NNW 18:31:06 25° N 18:31:06 25° N
Okean O Rocket 3.6 18:30:17 10° SSW 18:34:06 27° W 18:37:56 10° NW
CZ-2C R/B 4.3 18:44:29 14° NNW 18:48:00 29° WNW 18:52:22 10° WSW
Cosmos 2219 Rocket 4.1 18:44:49 10° NNW 18:46:30 19° NNW 18:46:30 19° NNW
ATLAS CENTAUR R/B 4.4 18:51:23 10° WNW 18:54:27 20° NW 18:54:27 20° NW
NOSS 3-4 (A) 4.4 18:50:21 10° NW 18:55:00 42° N 18:55:00 42° N
NOSS 3-4 (C) 4.5 18:50:27 10° NW 18:55:05 42° N 18:55:05 42° N
ATLAS 2AS CENTAUR R/B 4.0 18:53:19 10° NW 18:58:02 30° N 18:58:02 30° N
Cosmos 2360 Rocket 3.9 19:16:25 10° NW 19:19:09 28° NW 19:19:09 28° NW
Cosmos 2322 Rocket 4.4 19:38:28 10° NW 19:42:10 21° W 19:42:10 21° W
